1343 visiteurs
Prévisions de votre ville :
Vigilance : 8 départements 1 département Mise à jour le 05/12/2019 à 16:10 - Voir la carte

Paris Roissy CDG (95380) le 05/12/2019 à 17:30 Choisir station

1°C 93 % SSO Vit. moyenne 9 kmh/h

Relevés météo quotidiens pour la station de :

UTC
S: Synop
M: Metar
Loc T°C
(°C)
Td
(°C)
HR
(%)
Vis
(km)
Néb
(octa)
Vent
(km/h)
Pression
(mb)
Précipitations
(mm)
Temps
              MOY
10 min
DIR RAF 1h MESURE VAR SUR 3h    
S 00 h 02h 15.3 10.3 72 20 - 2 6 1020.3 0.0/3h 0.0/6h - 0.0/3h -
S 01 h 03h 14.6 10.4 76 20 - 4 7 1020.0 -0.5/3h 0.0/1h -
S 02 h 04h 12.7 9.9 83 20 - 4 4 1019.8 -0.9/3h 0.0/1h -
S 03 h 05h 12.3 10.0 86 20 - 2 7 1019.8 -0.8/3h 0.0/3h -
S 04 h 06h 11.4 9.5 88 20 - - - 6 1019.8 -0.5/3h 0.0/1h -
S 05 h 07h 12.9 10.8 87 20 - - - 2 1019.6 -0.1/3h 0.0/1h -
S 06 h 08h 16.8 11.1 69 20 - - - 6 1019.1 -0.2/3h 0.0/12h - 0.0/3h - 0.0/24h -
S 07 h 09h 20.0 11.0 56 20 - - - 6 1018.7 -0.1/3h 0.0/1h -
S 08 h 10h 22.2 7.2 38 20 - 4 9 1018.5 -0.1/3h 0.0/1h -
S 09 h 11h 23.5 4.4 29 20 - 6 9 1018.2 -0.2/3h 0.0/3h -
S 10 h 12h 25.3 6.5 30 20 - 6 15 1018.0 -0.2/3h 0.0/1h -
S 11 h 13h 26.9 4.0 23 20 - 7 19 1017.4 -0.6/3h 0.0/1h -
S 12 h 14h 27.6 5.2 24 20 - 6 17 1016.9 -0.8/3h 0.0/6h - 0.0/3h -
S 13 h 15h 26.9 5.2 25 20 - 6 9 1016.4 -1.4/3h 0.0/1h -
S 14 h 16h 28.4 5.9 24 20 - 4 9 1015.9 -1.3/3h 0.0/1h -
S 15 h 17h 27.5 7.9 29 20 - 4 15 1015.3 -1.6/3h 0.0/3h -
S 16 h 18h 28.3 7.5 27 20 - 4 7 1014.7 -1.5/3h 0.0/1h -
S 17 h 19h 28.1 9.4 31 20 - 11 19 1014.3 -1.5/3h 0.0/1h -
S 18 h 20h 25.6 14.4 50 20 - 19 31 1014.6 -0.8/3h 0.0/12h - 0.0/3h -
S 19 h 21h 23.0 14.3 58 20 - 6 15 1014.9 -0.2/3h 0.0/1h -
S 20 h 22h 20.8 12.5 59 20 - 9 17 1015.8 +0.7/3h 0.0/1h -
S 21 h 23h 19.0 12.3 65 20 - 9 15 1016.5 +1.2/3h 0.0/3h -
S 22 h 00h 17.1 13.6 80 20 - 6 11 1016.9 +1.2/3h 0.0/1h -
S 23 h 01h 15.5 13.3 87 19 - 6 17 1017.1 +0.7/3h 0.0/1h -
evolution des temperatures
cumul des precipitations
vent moyen et rafales
pression atmospherique

Un tiret (-) signifie que les données ne sont pas disponibles.

Passez la souris sur les pictos temps pour avoir plus de précisions. Passez les flèches sur l'icône de la direction du vent pour voir la direction précise en degrés.

Les données de l'heure en cours sont disponibles à partir de H+15 minutes.


S signifie station Synop, plus complète qu'une station Metar (M). Il y a +1h de différence entre l'heure UTC et l'heure légale en hiver et +2h en été.

Td est la mesure du point de rosée.

HR est l'humidité relative/p>

Vis est la visibilité

Néb est la nébulosité du ciel (couverture nuageuse) exprimée en octas (de 0/8 à 8/8).

Vent moy 10 min donne le vent moyen sur les 10 minutes qui précèdent le relevé.

Vent raf 1h donne la rafale maximale mesurée dans l'heure qui précède le relevé.


Les données les plus anciennes remontent à avril 2014.

Les données présentées sur cette page proviennent des stations météo officielles. Les relevés sont effectués aux normes en vigueur (anémomètre à 10m de haut, thermomètre sous abri normalisé à 2m du sol...)

Météo 60 décline toute responsabilité en cas d'absence de données, d'erreurs, de mauvaise utilisation ou interprétation et n'est pas habilité à fournir des certificats intempéries.